Hourly Weather Barra do Dande

Today, 2 October, Friday

Time Temperature Precipitation Wind Pressure Humidity
00:00 +26°C° 0 mm 1 mps 759 mmHg 76%
01:00 +26°C° 0 mm 1 mps 758 mmHg 77%
02:00 +26°C° 0 mm 1 mps 758 mmHg 78%
03:00 +25°C° 0 mm 1 mps 758 mmHg 79%
04:00 +23°C° 0 mm 0 mps 757 mmHg 79%
05:00 +26°C° 0 mm 1 mps 758 mmHg 77%
06:00 +26°C° 0 mm 1 mps 759 mmHg 75%
07:00 +27°C° 0 mm 1 mps 759 mmHg 72%
08:00 +29°C° 0 mm 1 mps 759 mmHg 63%
09:00 +31°C° 0 mm 2 mps 759 mmHg 55%
10:00 +34°C° 0 mm 2 mps 759 mmHg 46%
11:00 +35°C° 0 mm 3 mps 758 mmHg 46%
12:00 +35°C° 0 mm 4 mps 757 mmHg 46%
13:00 +35°C° 0 mm 5 mps 757 mmHg 46%
14:00 +34°C° 0 mm 5 mps 756 mmHg 51%
15:00 +32°C° 0 mm 5 mps 755 mmHg 56%
16:00 +30°C° 0 mm 6 mps 755 mmHg 61%
17:00 +29°C° 0 mm 5 mps 755 mmHg 67%
18:00 +27°C° 0 mm 5 mps 756 mmHg 73%
19:00 +26°C° 0 mm 5 mps 757 mmHg 79%
20:00 +26°C° 0 mm 5 mps 757 mmHg 79%
21:00 +26°C° 0 mm 4 mps 758 mmHg 79%
22:00 +26°C° 0 mm 4 mps 758 mmHg 79%
23:00 +26°C° 0 mm 4 mps 758 mmHg 79%

Tomorrow, 3 October, Saturday

Time Temperature Precipitation Wind Pressure Humidity
00:00 +26°C° 0 mm 3 mps 758 mmHg 78%
01:00 +26°C° 0 mm 2 mps 758 mmHg 78%
02:00 +26°C° 0.2 mm 2 mps 758 mmHg 78%
03:00 +26°C° 0.2 mm 2 mps 758 mmHg 78%
04:00 +25°C° 0.2 mm 1 mps 758 mmHg 79%
05:00 +26°C° 0.1 mm 1 mps 758 mmHg 78%
06:00 +26°C° 0.1 mm 1 mps 759 mmHg 77%
07:00 +26°C° 0.1 mm 1 mps 760 mmHg 76%
08:00 +28°C° 0.5 mm 1 mps 760 mmHg 69%
09:00 +30°C° 0.5 mm 1 mps 760 mmHg 62%
10:00 +31°C° 0.5 mm 1 mps 759 mmHg 55%
11:00 +31°C° 0.4 mm 2 mps 759 mmHg 54%
12:00 +33°C° 0.4 mm 3 mps 758 mmHg 54%
13:00 +33°C° 0.4 mm 4 mps 757 mmHg 53%
14:00 +32°C° 0 mm 4 mps 757 mmHg 57%
15:00 +30°C° 0 mm 5 mps 756 mmHg 61%
16:00 +29°C° 0 mm 5 mps 756 mmHg 65%
17:00 +28°C° 0 mm 5 mps 757 mmHg 70%
18:00 +27°C° 0 mm 5 mps 757 mmHg 76%
19:00 +26°C° 0 mm 5 mps 758 mmHg 81%
20:00 +26°C° 0 mm 4 mps 758 mmHg 81%
21:00 +25°C° 0 mm 4 mps 759 mmHg 81%
22:00 +25°C° 0 mm 4 mps 759 mmHg 81%
23:00 +25°C° 0 mm 3 mps 759 mmHg 80%

Day after tomorrow, 4 October, Sunday

Time Temperature Precipitation Wind Pressure Humidity
00:00 +25°C° 0 mm 3 mps 759 mmHg 79%
01:00 +25°C° 0 mm 2 mps 759 mmHg 78%
02:00 +25°C° 0 mm 2 mps 759 mmHg 77%
03:00 +25°C° 0 mm 1 mps 759 mmHg 77%
04:00 +25°C° 0 mm 1 mps 759 mmHg 76%
05:00 +25°C° 0 mm 1 mps 759 mmHg 75%
06:00 +26°C° 0 mm 2 mps 759 mmHg 75%
07:00 +26°C° 0 mm 2 mps 760 mmHg 74%
08:00 +28°C° 0 mm 2 mps 760 mmHg 65%
09:00 +31°C° 0 mm 1 mps 760 mmHg 55%
10:00 +33°C° 0 mm 1 mps 760 mmHg 46%
11:00 +34°C° 0 mm 2 mps 759 mmHg 46%
12:00 +34°C° 0 mm 3 mps 758 mmHg 47%
13:00 +34°C° 0 mm 5 mps 757 mmHg 48%
14:00 +33°C° 0 mm 5 mps 757 mmHg 51%
15:00 +32°C° 0 mm 5 mps 756 mmHg 55%
16:00 +30°C° 0 mm 5 mps 755 mmHg 59%
17:00 +29°C° 0 mm 5 mps 756 mmHg 65%
18:00 +27°C° 0 mm 4 mps 757 mmHg 71%
19:00 +26°C° 0 mm 4 mps 758 mmHg 76%
20:00 +26°C° 0 mm 4 mps 758 mmHg 78%
21:00 +26°C° 0 mm 3 mps 758 mmHg 79%
22:00 +26°C° 0 mm 3 mps 759 mmHg 81%
23:00 +25°C° 0 mm 3 mps 759 mmHg 81%

5 October, Monday

Time Temperature Precipitation Wind Pressure Humidity
00:00 +25°C° 0 mm 2 mps 759 mmHg 82%
01:00 +25°C° 0 mm 2 mps 758 mmHg 83%
02:00 +25°C° 0.1 mm 2 mps 758 mmHg 82%
03:00 +25°C° 0.1 mm 2 mps 758 mmHg 82%
04:00 +25°C° 0.1 mm 2 mps 758 mmHg 81%
05:00 +25°C° 0 mm 2 mps 759 mmHg 80%
06:00 +26°C° 0 mm 2 mps 759 mmHg 78%
07:00 +26°C° 0 mm 1 mps 760 mmHg 76%
08:00 +28°C° 0 mm 2 mps 760 mmHg 68%
09:00 +30°C° 0 mm 2 mps 760 mmHg 60%
10:00 +32°C° 0 mm 2 mps 760 mmHg 52%
11:00 +33°C° 0 mm 3 mps 759 mmHg 52%
12:00 +33°C° 0 mm 4 mps 758 mmHg 52%
13:00 +33°C° 0 mm 5 mps 757 mmHg 52%
14:00 +32°C° 0 mm 5 mps 757 mmHg 57%
15:00 +30°C° 0 mm 6 mps 757 mmHg 61%
16:00 +29°C° 0 mm 6 mps 756 mmHg 65%
17:00 +28°C° 0 mm 5 mps 757 mmHg 70%
18:00 +27°C° 0 mm 5 mps 757 mmHg 75%
19:00 +26°C° 0 mm 4 mps 758 mmHg 80%
20:00 +26°C° 0 mm 4 mps 759 mmHg 79%
21:00 +26°C° 0 mm 4 mps 759 mmHg 79%
22:00 +26°C° 0 mm 3 mps 760 mmHg 78%
23:00 +26°C° 0 mm 3 mps 760 mmHg 78%

6 October, Tuesday

Time Temperature Precipitation Wind Pressure Humidity
00:00 +26°C° 0 mm 2 mps 760 mmHg 77%
01:00 +26°C° 0 mm 2 mps 759 mmHg 76%
02:00 +25°C° 0 mm 2 mps 759 mmHg 77%
03:00 +25°C° 0 mm 2 mps 759 mmHg 78%
04:00 +25°C° 0 mm 2 mps 759 mmHg 78%
05:00 +25°C° 0 mm 1 mps 759 mmHg 77%
06:00 +26°C° 0 mm 1 mps 759 mmHg 76%
07:00 +24°C° 0 mm 0 mps 759 mmHg 75%
08:00 +28°C° 0 mm 1 mps 759 mmHg 67%
09:00 +29°C° 0 mm 2 mps 759 mmHg 59%
10:00 +31°C° 0 mm 3 mps 759 mmHg 51%
11:00 +31°C° 0 mm 3 mps 758 mmHg 51%
12:00 +33°C° 0 mm 4 mps 758 mmHg 52%
13:00 +33°C° 0 mm 5 mps 757 mmHg 52%
14:00 +32°C° 0 mm 5 mps 756 mmHg 55%
15:00 +30°C° 0 mm 5 mps 756 mmHg 59%
16:00 +29°C° 0 mm 5 mps 755 mmHg 62%
17:00 +28°C° 0 mm 5 mps 756 mmHg 67%
18:00 +27°C° 0 mm 5 mps 757 mmHg 72%
19:00 +26°C° 0 mm 4 mps 758 mmHg 77%
20:00 +26°C° 0 mm 4 mps 758 mmHg 78%
21:00 +25°C° 0 mm 3 mps 759 mmHg 78%
22:00 +25°C° 0 mm 3 mps 759 mmHg 78%
23:00 +25°C° 0 mm 2 mps 759 mmHg 78%

7 October, Wednesday

Time Temperature Precipitation Wind Pressure Humidity
00:00 +25°C° 0 mm 2 mps 759 mmHg 78%
01:00 +25°C° 0 mm 1 mps 759 mmHg 78%
02:00 +25°C° 0 mm 1 mps 759 mmHg 77%
03:00 +25°C° 0 mm 1 mps 759 mmHg 77%
04:00 +25°C° 0 mm 1 mps 759 mmHg 76%
05:00 +25°C° 0 mm 1 mps 759 mmHg 74%
06:00 +25°C° 0 mm 1 mps 759 mmHg 72%
07:00 +26°C° 0 mm 1 mps 760 mmHg 70%
08:00 +27°C° 0 mm 1 mps 760 mmHg 65%
09:00 +28°C° 0 mm 1 mps 760 mmHg 59%
10:00 +30°C° 0 mm 2 mps 760 mmHg 53%
11:00 +31°C° 0 mm 3 mps 759 mmHg 50%
12:00 +33°C° 0 mm 4 mps 758 mmHg 47%
13:00 +34°C° 0 mm 5 mps 757 mmHg 43%
14:00 +33°C° 0 mm 5 mps 757 mmHg 48%
15:00 +30°C° 0 mm 5 mps 756 mmHg 53%
16:00 +29°C° 0 mm 5 mps 756 mmHg 58%
17:00 +28°C° 0 mm 5 mps 756 mmHg 63%
18:00 +27°C° 0 mm 5 mps 757 mmHg 69%
19:00 +26°C° 0 mm 5 mps 757 mmHg 74%
20:00 +26°C° 0 mm 4 mps 758 mmHg 75%
21:00 +26°C° 0 mm 4 mps 759 mmHg 76%
22:00 +25°C° 0 mm 3 mps 759 mmHg 77%
23:00 +25°C° 0 mm 2 mps 759 mmHg 78%
Show more